Flag for Germany Weather past 2 weeks in Tuttlingen, Baden-Württemberg, Germany

Now
59 °F

Overcast.


Feels Like: 59 °F
Forecast: 41 / 59 °F
Wind: 2 mph from Southwest

Location: Konstanz

Current Time: Sep 5, 2015 at 7:03:17 PM

Latest Report: Sep 5, 2015 at 6:00 PM


Visibility: 44 mi

Pressure: 30.06 "Hg (27.86 "Hg at 643m altitude)

Humidity: 56%

Dew point: 43 °F

Location of TuttlingenLocation

Historic Weather in Tuttlingen — Graph

°F

Tuttlingen temperature yesterday

Maximum temperature yesterday: 69 °F (at 5:00 PM)
Minimum temperature yesterday: 53 °F (at 7:00 AM)
Average temperature yesterday: 62 °F

Past Weeks' High & Low Weather Summary

 TemperatureHumidityPressure
High92 °F (Aug 29, 5:00 PM)96% (Aug 24, 3:00 AM)30.17 "Hg (Aug 24, 3:00 AM)
Low53 °F (Aug 26, 7:00 AM)27% (Aug 31, 4:00 PM)29.70 "Hg (Aug 24, 8:00 AM)
Average68 °F67%29.98 "Hg
* Reported Aug 21 6:00 PM — Sep 5 6:00 PM, Tuttlingen, Weather by CustomWeather, © 2015

Note: Actual official high and low records may vary slightly from our data, if they occured in-between our weather recording intervals... More about our weather records

Advertising

Tuttlingen weather history for previous 24 hours

 ConditionsComfort  
Time TempWeatherWind HumidityBarometerVisibility
6:00 PM
Sat, Sep 5
59 °FOvercast.2 mph56%30.06 "Hg43 mi
5:00 PM59 °FOvercast.2 mph57%30.06 "Hg31 mi
4:00 PM65 °FOvercast.2 mph42%30.03 "Hg37 mi
3:00 PM63 °FOvercast.3 mph46%30.04 "Hg40 mi
2:00 PM60 °FOvercast.3 mph53%30.05 "Hg40 mi
1:00 PM61 °FOvercast.2 mph51%30.05 "Hg37 mi
12:00 PM60 °FOvercast.3 mph53%30.05 "Hg37 mi
11:00 AM58 °FPartly sunny.1 mph59%30.06 "Hg37 mi
10:00 AM59 °FPartly sunny.2 mph57%30.04 "Hg37 mi
9:00 AM56 °FOvercast.1 mph70%30.05 "Hg34 mi
8:00 AM55 °FOvercast.1 mph75%30.04 "Hg28 mi
7:00 AM54 °FOvercast.1 mph80%30.03 "Hg25 mi
6:00 AM55 °FOvercast.1 mph74%30.02 "Hg16 mi
5:00 AM55 °FOvercast.1 mph77%30.02 "Hg43 mi
4:00 AM56 °FOvercast.1 mph67%30.01 "Hg43 mi
3:00 AM57 °FOvercast.1 mph61%30.01 "Hg43 mi
2:00 AM58 °FOvercast.1 mph59%30.01 "Hg43 mi
1:00 AM59 °FOvercast.2 mph56%30.01 "Hg43 mi
11:00 PM
Fri, Sep 4
61 °FOvercast.6 mph55%29.98 "Hg43 mi
10:00 PM63 °FOvercast.3 mph54%29.96 "Hg43 mi
9:00 PM64 °FOvercast.2 mph52%29.94 "Hg43 mi
8:00 PM65 °FOvercast.2 mph50%29.92 "Hg43 mi
7:00 PM67 °FOvercast.2 mph45%29.93 "Hg43 mi
Weather by CustomWeather, © 2015

See weather overviewHow to use our weather pages